Temp
20 20 20 20 20 20 19 19 19 19 19 19 19 20 19 19 19 18 18 17 18 18 18 17 17 17 18 17 17 16 16 16 16 16 17 17 17 18 19 18 18 18 19 19 19 18 18 18 19 19 19 19 19 19 19 19 19 19 19 20 20 20 20 19 19 20 21 22 22 22 22 22 22 21 21 21 20 21 21 20 20 21 21 21 22
20 20 20 20 20 20 20 19 19 19 19 18 18 19 19 19 18 18 18 18 18 18 17 17 17 17 17 17 16 16 15 15 15 15 15 15 16 17 18 18 18 18 19 19 19 18 18 18 18 18 18 19 19 18 18 18 18 19 19 19 20 20 20 20 19 20 20 21 22 22 22 22 22 21 21 21 21 21 21 21 20 20 21 21 21
21 20 21 20 20 20 20 19 19 19 18 18 18 18 18 18 18 17 17 17 17 17 17 17 17 17 17 17 16 15 15 14 14 14 14 15 15 16 17 18 18 18 19 19 18 18 17 17 18 18 18 18 18 17 17 17 18 18 18 19 19 19 19 19 19 20 20 20 21 22 22 22 22 21 21 21 21 21 21 21 21 20 21 21 21
21 21 21 20 20 20 19 19 18 18 18 18 17 18 18 18 18 17 17 16 17 17 16 17 17 17 17 16 15 15 14 13 13 13 13 14 14 15 16 17 18 18 18 18 17 17 17 17 17 17 17 17 16 16 16 16 17 17 18 18 18 18 19 19 19 19 19 20 21 21 22 22 22 22 21 21 21 21 21 21 21 21 20 20 20
20 20 20 20 19 19 19 18 18 17 17 17 17 17 17 17 17 17 16 16 16 16 16 17 17 17 17 16 15 14 13 13 12 12 12 13 13 14 16 17 17 18 18 18 16 16 16 16 16 15 16 16 15 15 15 16 16 16 17 17 17 17 18 18 19 19 19 20 20 21 21 21 22 22 21 21 21 20 21 21 21 21 21 20 20
20 20 20 20 19 19 18 18 17 17 17 17 17 17 17 16 16 16 16 16 16 16 16 16 17 17 17 15 14 13 13 12 12 11 12 12 13 14 15 17 17 17 17 17 16 15 15 15 15 15 15 15 15 14 14 15 15 16 16 16 16 16 17 18 18 19 19 20 20 21 21 21 21 21 21 20 20 20 20 20 21 21 21 21 21
19 19 20 19 18 18 18 17 17 17 16 16 16 16 16 16 16 16 16 16 16 16 16 16 17 17 16 14 13 13 12 12 12 11 11 12 12 13 15 16 17 17 16 16 15 15 15 15 14 14 14 14 14 13 14 14 14 15 15 15 15 16 16 17 18 18 19 19 20 20 20 21 21 21 20 20 20 20 20 20 20 20 20 20 21
19 19 19 18 18 18 18 17 17 16 16 16 16 16 16 16 16 15 15 15 15 15 16 16 16 16 15 14 13 13 12 12 11 11 11 11 12 12 13 14 16 16 15 15 14 14 14 14 14 14 13 13 13 13 13 13 13 14 14 15 15 15 16 16 17 18 18 19 19 20 20 20 20 20 19 20 19 19 19 20 20 20 20 20 20
19 19 18 18 18 17 17 17 17 16 16 16 16 16 16 16 16 15 15 15 15 15 15 15 16 16 16 15 14 13 12 12 11 11 11 11 11 12 13 14 15 15 15 14 14 13 13 14 14 14 13 13 13 13 12 12 13 13 14 14 15 15 15 16 16 17 17 18 18 19 19 19 19 19 18 18 18 18 19 19 19 20 20 20 20
18 18 18 18 17 17 17 17 17 17 16 16 16 15 16 16 16 15 15 15 15 15 15 15 15 15 15 16 15 13 12 12 12 11 12 12 12 12 13 14 15 15 14 14 13 13 13 13 14 14 13 12 13 13 12 12 12 13 14 14 15 15 15 15 16 16 16 17 18 18 18 18 18 18 17 17 17 17 18 18 19 19 19 19 20
18 18 18 17 17 17 17 17 17 17 16 16 15 15 15 15 16 15 15 15 15 15 14 14 14 14 15 15 14 13 12 12 12 12 12 12 13 13 13 14 15 15 14 14 13 13 13 13 13 13 12 12 12 13 12 12 12 12 13 14 15 15 15 15 15 16 16 16 17 17 17 17 17 17 17 16 16 16 17 17 18 18 18 19 19
18 18 18 17 16 16 17 17 17 17 16 16 15 15 15 15 15 15 15 15 15 15 14 14 14 14 14 14 14 12 12 12 13 12 12 13 13 14 14 14 15 14 14 14 13 12 12 13 13 13 12 11 12 12 11 12 12 13 14 14 15 15 15 15 15 15 15 15 16 16 16 16 16 16 16 15 15 16 16 16 17 17 17 18 18
18 18 18 18 17 16 16 17 17 16 16 16 16 15 15 15 15 15 15 15 15 15 15 14 14 14 14 14 13 12 12 12 13 13 13 13 14 14 14 14 14 13 13 13 12 12 12 12 13 12 12 11 11 11 11 11 12 13 13 14 15 15 15 14 15 15 15 15 15 15 15 15 15 15 15 15 15 15 15 16 16 16 17 17 18
18 18 18 18 17 16 16 16 17 17 16 16 16 16 15 15 15 15 15 15 15 15 15 15 14 14 14 14 13 12 12 12 13 13 13 13 13 14 14 15 14 13 13 12 12 12 12 12 12 12 11 10 10 11 10 11 12 13 13 13 14 15 15 14 15 15 15 14 14 14 14 14 14 14 14 14 14 15 15 15 15 16 16 17 18
18 18 18 18 17 17 16 16 16 16 16 16 16 16 15 15 15 15 15 15 15 15 15 15 15 14 14 14 14 13 12 13 13 12 12 13 13 13 14 14 14 14 13 13 12 11 11 11 11 11 11 10 10 11 10 11 12 12 12 13 14 14 14 14 14 14 14 14 14 14 14 14 14 14 14 14 14 14 14 15 15 16 16 17 18
18 18 18 18 17 16 16 16 16 16 16 16 16 16 15 15 15 15 15 15 15 15 15 15 15 14 14 14 14 13 13 13 13 12 12 12 12 13 13 13 14 14 13 13 12 12 11 11 11 11 11 10 10 11 11 10 11 12 12 12 13 13 13 13 13 14 14 14 14 14 14 14 14 14 14 14 14 14 14 15 15 16 16 17 18
18 18 17 17 17 16 15 15 15 15 15 16 15 15 15 15 15 15 15 15 15 15 15 15 15 15 14 14 14 14 13 13 13 12 12 12 12 12 12 13 13 14 13 13 13 12 11 11 11 11 10 10 10 11 10 10 11 11 11 12 12 13 13 13 13 14 14 14 14 14 14 14 14 14 14 14 14 14 14 14 15 15 15 16 17
18 17 17 17 17 16 15 15 15 15 15 15 15 15 15 15 15 15 15 15 15 15 15 15 15 15 15 14 14 14 13 13 13 13 12 12 12 12 12 12 13 13 13 13 13 12 11 11 11 11 10 10 10 10 10 10 10 11 11 11 12 12 12 12 12 13 14 14 14 14 14 14 14 14 14 14 14 14 14 14 14 14 15 15 16
17 17 16 17 17 17 16 16 16 16 15 15 15 15 15 15 15 15 15 16 15 15 15 15 15 15 15 15 15 14 14 13 13 13 12 12 12 12 12 12 12 12 13 13 13 12 12 12 12 11 11 11 10 10 10 10 10 10 11 11 12 12 12 12 12 13 14 14 15 15 15 15 15 15 14 14 14 14 13 13 13 13 14 14 15
17 17 16 17 17 16 17 16 16 16 16 16 16 15 15 15 15 15 15 16 15 15 15 15 15 15 15 15 15 14 14 14 13 13 13 12 12 12 12 12 12 12 12 13 13 12 12 12 12 12 11 11 11 11 11 11 10 10 11 11 12 12 12 12 13 13 13 14 15 15 15 15 15 15 14 14 13 13 13 13 13 13 13 13 14
17 17 17 17 16 16 16 16 16 16 16 16 16 16 16 16 15 15 15 15 15 15 16 16 15 15 15 15 15 15 14 14 14 13 13 12 12 12 11 11 12 12 12 12 12 12 11 11 12 12 12 11 11 11 11 11 11 11 11 11 12 12 12 12 13 13 13 14 14 14 15 15 15 15 14 14 13 13 13 12 12 12 13 13 13
17 17 17 16 16 16 16 16 16 16 16 16 16 16 16 16 16 15 15 15 16 16 16 16 16 15 15 15 15 15 14 14 13 13 13 12 12 12 12 11 12 12 12 12 12 12 11 11 11 11 12 12 11 12 12 11 11 12 12 12 12 12 12 12 12 12 13 13 14 14 14 14 14 14 14 14 13 13 13 12 12 12 12 13 13
17 17 17 16 16 16 16 15 16 16 16 16 16 16 16 16 16 16 15 15 16 16 16 16 16 15 15 15 15 15 15 14 14 13 13 12 12 12 12 12 12 12 12 12 12 12 11 11 11 11 12 12 12 12 12 12 12 12 12 13 13 13 12 12 12 12 12 13 13 13 14 14 14 14 14 14 14 13 13 13 13 13 13 13 13
18 17 17 16 17 16 16 16 16 16 16 17 16 16 16 16 16 16 15 15 15 16 16 16 16 15 15 15 15 15 15 14 14 13 13 13 13 12 12 12 12 12 12 12 12 12 11 11 12 12 12 12 12 12 12 12 12 12 13 13 13 13 12 12 12 12 12 12 13 13 13 13 13 14 13 14 14 14 13 13 13 13 13 13 13
18 17 17 17 17 16 16 17 16 16 17 17 16 16 16 16 16 16 16 16 15 16 16 16 16 16 15 15 15 15 15 14 14 13 13 13 13 12 12 12 11 11 11 11 11 11 11 11 12 12 12 12 13 13 13 13 13 13 13 13 13 13 12 12 12 12 12 12 12 13 13 13 13 13 13 14 14 14 14 13 13 13 13 13 13
18 18 17 17 17 17 17 17 17 16 17 17 17 17 17 16 16 16 16 16 15 16 16 16 16 16 15 15 15 15 15 15 14 14 13 13 12 12 12 12 11 11 11 11 11 11 11 11 12 12 12 13 13 13 13 13 13 13 13 12 13 13 12 12 12 11 11 12 12 12 12 12 13 13 13 14 14 14 14 14 14 14 14 14 14
18 18 18 18 17 17 17 17 17 17 17 17 17 17 17 17 16 16 16 16 16 16 16 16 16 16 16 15 15 15 15 15 14 13 13 12 12 12 12 11 11 11 11 11 11 11 11 11 11 12 13 13 14 13 13 13 13 13 13 12 13 13 12 12 12 11 11 11 12 12 12 12 12 13 13 13 13 13 14 14 14 14 14 14 14
19 19 18 18 18 18 18 17 17 17 17 17 17 17 17 17 17 16 16 16 16 16 15 15 15 16 16 16 15 15 15 15 14 13 13 13 12 12 11 11 11 10 10 10 11 11 11 11 11 12 13 14 13 13 13 13 12 12 12 13 13 12 12 12 11 11 11 11 11 12 12 12 12 12 12 13 13 13 13 14 14 14 14 14 15
19 19 19 19 18 18 18 18 18 17 17 17 17 17 17 17 16 16 16 16 16 15 15 15 15 15 15 15 15 15 15 14 14 13 13 13 12 12 11 11 11 11 10 10 11 11 11 12 12 13 14 13 13 13 13 12 12 12 12 13 13 12 12 12 11 11 11 11 11 12 12 12 12 12 12 12 12 13 13 13 14 14 14 14 15
18 19 19 19 18 18 18 18 18 17 17 17 17 17 17 17 16 16 16 16 16 16 16 16 15 15 15 15 15 15 14 14 14 14 13 13 12 12 12 11 11 11 11 11 11 11 11 12 13 14 13 13 13 12 12 12 12 12 12 13 12 12 12 11 11 11 11 11 11 12 11 11 11 11 11 12 12 12 13 13 13 13 13 14 14
18 18 19 19 18 17 18 18 18 17 17 17 17 17 17 17 17 16 16 16 16 16 16 16 16 16 15 15 15 15 14 14 14 13 13 12 12 12 12 11 11 11 11 11 11 11 12 13 13 13 12 12 12 12 12 12 12 12 12 12 12 12 12 11 11 11 11 11 11 11 11 11 11 11 11 11 12 12 12 13 13 13 13 13 13
18 18 18 18 18 17 17 17 17 17 17 17 17 17 17 17 17 17 16 16 16 16 16 16 16 16 15 15 15 15 14 14 13 13 13 12 12 12 12 12 12 11 11 11 11 11 12 13 13 13 12 12 12 12 12 12 12 12 12 12 12 12 12 11 11 11 10 11 11 11 11 11 10 10 11 11 11 12 12 12 12 12 12 12 13
18 18 18 18 17 17 17 17 17 17 17 17 17 17 17 17 17 17 17 17 16 16 16 16 16 15 15 15 15 15 14 14 13 13 13 12 12 12 12 12 12 12 11 11 11 11 12 14 13 13 12 12 12 12 12 12 12 12 12 12 11 12 11 11 11 11 10 11 11 11 10 10 10 10 10 11 11 11 12 12 11 12 12 12 12
18 18 18 18 17 17 17 17 17 17 17 17 17 17 17 17 17 17 17 17 17 17 16 16 15 15 15 15 15 15 15 14 14 13 13 13 12 12 12 12 12 12 12 12 11 12 13 13 13 13 12 12 11 11 11 12 12 12 12 12 12 12 11 11 11 11 10 11 11 10 10 10 10 10 10 10 11 11 11 11 11 11 11 11 11
18 18 18 18 17 17 17 17 17 17 17 17 17 17 17 17 17 17 17 17 17 17 16 16 15 15 15 15 15 15 14 14 14 13 13 13 12 12 12 12 12 13 13 13 12 12 13 13 13 12 12 11 11 11 11 12 12 12 12 12 12 12 12 11 11 10 10 10 10 10 10 10 9 9 9 10 10 10 10 10 10 10 11 11 11
18 18 18 18 17 17 17 17 17 17 17 17 17 17 17 17 17 17 17 17 17 17 16 16 15 15 15 15 15 15 14 14 14 14 13 12 12 12 12 12 12 13 13 13 13 13 13 13 13 12 12 11 11 11 11 11 12 12 12 12 12 12 12 11 11 10 10 10 10 9 9 9 9 9 9 9 9 9 9 9 9 10 10 10 11
18 18 18 18 18 18 18 17 17 17 17 17 17 17 17 17 17 17 17 17 18 17 17 16 15 15 15 15 15 14 14 14 14 13 13 12 12 12 11 11 12 12 13 14 14 14 14 13 13 12 12 11 11 11 11 11 12 12 12 12 12 12 12 11 11 10 10 10 10 9 9 9 8 8 9 9 9 8 8 8 9 9 9 10 10
18 18 18 18 18 18 18 18 18 18 18 18 18 18 18 18 18 18 18 17 18 18 17 16 15 14 14 15 15 14 14 14 14 13 13 12 12 12 12 12 12 12 13 14 15 15 14 13 13 12 11 11 11 11 11 12 12 12 12 12 12 12 12 11 11 10 10 10 9 9 9 9 8 8 9 9 8 8 8 8 8 9 9 9 10
18 19 19 18 18 18 18 18 18 18 18 18 18 18 18 18 18 18 18 18 18 18 17 17 15 13 13 14 15 14 14 14 14 13 13 13 12 12 12 12 12 13 14 14 15 15 14 13 13 12 11 11 11 11 11 11 12 12 13 12 12 12 11 11 11 10 10 9 9 9 9 9 9 8 9 9 9 8 8 8 8 9 9 9 9
19 19 19 19 18 18 18 19 19 19 18 18 18 18 18 18 18 18 18 18 18 17 17 17 16 15 14 14 15 14 14 14 14 13 13 12 12 12 12 12 13 13 14 14 15 15 14 13 13 12 11 11 11 11 11 11 11 12 12 12 12 12 11 11 11 10 9 9 9 9 9 9 9 9 9 9 9 8 8 8 8 8 8 8 9
20 20 19 19 18 18 19 19 19 19 19 18 19 19 18 18 18 18 18 18 18 17 17 17 16 16 16 15 15 15 15 15 15 14 14 13 13 13 13 13 13 14 14 14 14 14 14 13 12 12 11 11 11 11 11 11 11 12 12 12 12 11 11 10 10 10 9 9 9 9 9 9 9 9 10 9 8 8 8 8 8 8 8 8 9
20 20 19 19 19 19 19 20 19 19 19 19 19 19 19 19 19 19 19 18 18 18 18 17 17 16 16 16 15 15 15 14 15 15 15 15 15 14 14 13 14 14 14 14 14 14 14 13 12 12 11 11 11 11 11 11 11 11 12 12 11 10 10 10 10 9 9 9 8 8 9 9 9 9 10 9 8 8 8 8 8 8 8 8 9
20 20 19 19 19 19 20 20 19 19 19 19 19 19 19 19 20 19 19 19 19 18 18 18 17 16 16 16 15 15 15 15 15 15 15 15 15 15 14 14 14 14 14 14 14 14 14 14 13 12 11 11 11 11 11 11 11 11 11 11 11 10 10 10 9 8 8 8 8 8 8 8 8 9 9 9 8 8 8 8 8 8 8 8 8
20 20 19 19 19 20 20 20 20 19 19 19 19 19 20 20 20 20 19 19 19 19 19 19 18 17 16 16 15 15 15 15 15 16 16 16 16 15 15 15 14 14 14 14 14 14 14 14 13 12 12 11 11 11 11 11 10 10 11 11 11 10 10 9 8 7 7 7 7 7 7 7 8 8 8 8 8 8 8 8 8 8 8 8 8
20 20 19 20 20 20 20 20 20 20 20 20 20 20 20 20 20 20 20 19 19 19 19 19 19 18 17 17 16 16 16 16 16 16 16 16 16 16 15 15 15 14 14 14 14 14 14 14 13 12 12 11 11 11 10 10 10 10 10 11 11 10 9 8 7 7 7 6 6 6 6 7 7 8 8 8 7 7 8 8 8 8 8 8 8
20 19 19 20 21 21 21 21 20 20 20 21 20 20 20 20 20 20 20 19 19 19 19 19 19 19 19 18 17 17 17 17 16 16 16 16 16 16 15 15 15 14 14 14 14 14 14 14 13 12 12 11 11 10 10 10 10 10 10 10 10 10 9 8 8 7 7 6 6 6 6 6 7 8 8 7 7 7 8 8 8 8 8 8 8
19 19 20 21 21 21 21 21 21 20 20 20 20 20 20 20 20 20 20 20 19 19 19 19 19 19 19 19 18 18 18 17 17 17 16 16 16 16 15 15 15 14 14 14 14 14 14 14 13 12 11 11 10 10 10 10 10 10 10 10 10 10 9 9 8 8 7 7 7 6 6 6 6 7 8 7 7 7 8 8 8 8 8 8 8
20 20 21 21 21 21 21 21 21 20 20 20 20 19 19 19 19 19 19 19 19 19 19 19 19 19 19 19 19 18 18 18 17 17 17 17 17 16 16 15 14 14 14 14 13 13 13 13 13 12 11 11 10 10 10 10 10 10 10 10 9 9 9 9 8 8 8 7 7 7 6 6 6 7 7 7 7 7 7 7 8 8 7 8 8
20 21 21 21 21 21 21 21 20 20 20 20 19 19 19 19 19 19 19 19 19 19 19 19 19 19 19 19 18 18 18 18 17 17 17 17 17 16 15 15 14 14 14 14 13 13 13 13 12 12 11 11 10 10 10 10 10 9 9 9 9 9 9 8 8 8 8 7 7 7 6 6 5 6 7 7 7 7 7 7 7 7 7 8 8
21 21 21 21 21 21 20 20 20 20 20 20 20 20 20 20 20 20 20 20 19 19 19 19 19 18 18 18 18 17 17 17 17 17 17 17 17 16 15 15 14 14 14 14 13 13 13 13 12 12 11 11 10 10 10 10 10 10 9 9 9 9 9 8 8 8 8 7 7 7 6 6 6 6 6 7 7 7 7 7 7 7 7 8 8
21 21 21 21 21 20 20 20 20 20 20 20 20 20 20 20 20 20 20 20 20 19 19 19 19 18 18 18 18 17 17 17 17 17 17 17 16 16 16 15 15 14 14 14 13 13 13 13 13 12 11 11 10 10 10 10 10 10 9 9 9 9 8 8 8 8 8 7 7 7 6 6 6 5 6 7 7 7 7 7 7 7 8 8 8
Height
820 820 820 819 819 819 819 819 818 817 816 816 815 813 813 813 812 812 811 811 810 809 809 808 808 808 807 806 805 805 804 803 802 801 800 799 797 795 794 794 794 793 791 791 790 789 788 787 786 785 784 783 782 781 780 779 778 777 776 775 774 774 773 772 772 771 769 768 767 766 766 765 765 764 763 762 762 761 761 761 762 761 761 762 762
820 821 821 820 820 819 819 819 818 818 817 817 816 815 815 814 814 813 812 812 811 810 810 810 810 809 808 808 807 806 806 805 804 803 801 801 799 797 796 795 795 793 792 791 790 789 789 788 787 786 785 784 783 782 781 780 780 778 777 776 775 774 774 773 773 772 770 768 767 766 765 765 764 764 763 762 761 761 760 760 761 761 761 761 763
821 822 821 820 820 820 820 820 820 819 818 818 818 817 816 816 815 815 814 813 813 812 812 811 811 810 809 809 808 807 807 806 806 805 804 803 801 799 798 796 796 795 793 792 791 790 790 789 788 787 786 785 784 784 783 782 781 780 779 778 777 776 775 775 774 773 772 770 768 767 766 765 765 764 763 763 762 761 760 760 760 760 760 761 762
822 822 821 821 821 821 822 821 821 821 820 820 819 819 818 817 816 816 815 815 814 813 813 812 811 810 810 810 809 808 808 807 807 806 805 804 802 800 799 798 797 796 794 793 792 792 791 791 790 789 787 787 786 785 785 784 783 782 781 780 779 778 776 775 774 774 773 771 769 768 767 766 765 764 764 763 762 762 761 760 761 761 761 761 761
823 822 822 822 823 823 823 823 822 822 822 821 820 820 819 818 818 817 817 816 815 814 814 813 812 811 810 811 810 810 810 809 808 807 805 804 802 801 800 799 798 796 795 794 793 794 793 793 792 791 789 788 788 788 787 786 785 784 783 781 780 779 777 776 775 774 774 772 770 769 768 767 766 765 764 764 763 762 762 761 761 762 762 761 761
824 824 823 823 824 824 824 824 824 823 823 823 822 821 820 820 819 818 818 817 816 816 815 814 813 812 812 811 811 812 812 811 810 808 806 804 802 801 800 799 798 797 796 795 795 795 795 794 794 793 792 791 790 790 789 788 786 785 784 783 782 780 778 777 776 775 774 773 771 769 768 767 767 766 765 764 764 763 763 762 762 762 762 761 761
825 825 825 824 825 825 825 825 825 825 825 824 823 823 822 821 821 820 820 819 818 817 816 815 814 814 813 813 813 813 813 812 811 809 807 805 804 802 801 800 799 798 797 797 797 797 796 796 795 794 794 793 792 792 790 789 788 787 785 784 783 781 780 778 776 775 774 773 772 771 769 769 768 767 766 765 765 765 764 763 762 762 762 762 761
826 826 826 826 827 827 827 827 826 826 826 825 824 824 823 823 822 821 821 820 820 819 818 817 816 815 815 814 814 814 814 813 812 809 808 807 805 804 802 801 800 799 799 799 799 798 798 797 797 796 795 795 794 793 792 791 790 788 787 785 784 782 781 779 777 776 775 774 773 772 771 770 769 768 767 766 766 766 766 765 763 762 762 762 761
827 828 828 827 828 828 828 827 827 827 827 826 826 825 824 824 823 823 822 822 821 820 820 819 818 817 816 815 815 814 815 814 812 810 809 807 806 804 803 801 801 801 801 800 800 800 799 798 798 797 796 796 795 794 793 792 790 789 788 786 785 783 781 780 778 777 776 775 773 772 771 771 770 769 769 768 768 768 767 766 765 763 762 762 761
829 829 829 828 828 829 828 828 828 828 827 827 827 826 825 825 824 824 823 823 822 821 821 821 819 818 817 816 815 815 815 815 813 811 810 808 806 805 803 802 801 802 801 801 801 801 800 800 799 798 797 796 795 794 792 791 790 789 788 787 786 784 782 781 779 778 777 776 775 774 773 773 773 772 771 770 770 769 768 767 765 764 763 762 761
829 830 829 829 829 829 829 828 828 828 827 827 827 827 827 826 825 825 824 824 824 823 823 822 821 820 819 818 817 816 816 816 814 811 810 808 807 805 803 802 802 802 802 802 802 802 801 801 800 799 798 797 796 794 792 791 790 789 788 787 786 784 783 782 781 780 779 777 776 776 775 775 775 774 773 772 771 771 770 769 767 766 764 763 763
830 830 829 830 829 829 829 829 828 828 828 828 828 827 827 827 826 825 825 825 825 824 824 823 823 822 821 819 819 818 817 816 814 812 810 808 807 805 804 803 803 803 803 802 803 803 802 802 801 800 800 799 797 795 792 791 790 789 788 787 786 785 783 783 782 781 780 779 778 777 777 776 776 775 775 774 773 772 771 770 769 768 767 766 764
831 831 830 830 829 829 830 829 828 828 828 828 828 828 828 827 827 826 826 826 826 825 824 824 823 823 822 821 820 819 819 818 815 814 811 809 808 806 804 805 804 804 804 804 804 804 803 803 802 801 801 800 798 796 793 791 790 789 788 787 786 785 784 783 783 782 781 781 780 779 779 778 777 777 777 776 775 774 772 771 770 769 768 767 765
831 831 830 830 829 829 829 829 829 828 828 828 828 828 828 827 827 827 826 826 826 825 824 824 823 823 822 822 821 820 819 819 817 815 813 810 808 806 805 806 805 805 805 805 804 804 804 803 803 803 802 801 799 797 794 792 791 790 789 787 786 785 784 784 783 783 782 782 781 780 779 779 778 778 777 777 776 775 773 772 770 769 768 767 765
832 831 831 830 830 830 829 829 829 828 828 828 828 828 828 827 827 827 826 826 826 825 824 824 823 823 823 822 821 820 819 819 817 816 815 812 810 808 807 806 806 805 805 805 805 804 804 804 804 803 802 801 800 798 795 794 793 792 790 788 787 786 785 785 784 783 783 782 781 781 780 779 778 777 777 776 776 775 774 773 771 769 768 766 765
832 831 831 830 830 830 830 830 830 829 829 829 828 828 828 828 828 827 827 827 826 825 825 824 824 824 823 822 822 821 820 819 818 816 815 813 811 809 808 807 806 806 806 806 805 805 805 804 804 803 802 801 800 799 797 795 794 793 791 790 789 787 786 786 785 784 783 782 781 781 780 779 778 777 776 776 775 774 773 772 771 769 768 766 764
832 832 831 831 830 830 830 830 830 830 830 829 829 829 829 828 828 828 827 827 826 826 826 825 824 824 823 823 822 821 820 819 818 817 816 814 812 811 810 808 807 807 807 806 806 805 805 805 804 804 803 802 801 799 798 796 795 794 793 791 790 789 787 786 785 784 783 782 781 780 779 779 778 777 776 775 774 773 772 771 771 770 768 767 765
832 832 832 832 831 831 831 830 830 830 830 830 830 830 829 829 829 828 828 827 827 827 826 825 825 824 823 823 822 821 821 819 818 818 817 815 813 812 811 810 809 809 808 807 807 806 806 806 805 805 804 803 802 801 799 798 796 795 794 793 791 790 788 787 785 784 783 782 781 780 779 778 778 777 776 775 774 773 772 772 772 771 770 769 767
832 832 833 832 832 831 831 831 830 830 830 830 830 830 829 830 829 829 828 828 827 827 826 826 825 824 824 823 822 822 821 820 819 818 817 816 815 813 813 812 810 810 809 808 808 807 807 807 806 806 805 804 803 802 800 799 798 796 796 794 793 791 789 787 786 785 783 782 781 780 779 778 778 777 776 776 774 773 773 773 772 772 771 770 769
832 833 833 832 832 832 831 831 831 830 830 830 830 830 830 830 830 829 829 828 828 827 827 826 825 825 824 824 823 822 822 820 820 819 818 817 816 815 814 813 811 811 810 809 808 808 807 807 807 806 805 804 803 802 801 800 799 797 796 795 794 792 790 788 787 786 784 782 781 780 779 778 778 777 776 776 775 774 773 773 772 772 772 771 770
832 833 833 832 833 833 832 832 831 831 831 831 830 830 830 830 830 829 829 829 828 827 827 826 825 825 824 824 823 822 822 821 820 820 819 818 817 816 815 814 813 812 811 810 809 809 808 808 808 806 805 804 803 802 801 800 799 798 796 795 794 793 790 789 788 787 785 783 782 781 780 779 778 777 777 776 775 775 774 773 773 772 772 772 771
833 833 833 833 834 833 833 833 832 831 832 831 831 831 830 830 830 829 829 829 828 827 827 826 825 825 824 824 823 823 822 821 820 820 819 818 818 817 816 815 814 813 812 811 810 809 809 809 808 807 805 803 802 801 801 800 798 797 796 794 793 793 791 790 789 788 786 784 783 782 781 780 779 778 778 777 776 775 774 774 773 772 772 771 771
833 833 833 834 834 833 833 833 832 832 832 831 831 831 830 830 830 829 829 829 828 828 827 826 825 825 824 824 823 823 822 821 820 820 819 818 818 817 816 815 815 814 812 811 811 810 809 809 808 806 804 802 801 800 800 799 798 797 796 794 792 792 791 791 790 789 787 785 784 783 782 781 780 779 778 777 776 775 774 773 773 772 771 770 770
833 833 833 834 833 833 833 833 832 832 832 831 831 831 830 830 830 830 829 828 828 827 827 826 826 825 824 824 823 823 822 821 821 820 819 818 818 817 816 815 815 814 812 811 811 810 809 808 807 805 803 801 801 799 798 798 797 797 796 794 792 792 792 791 790 789 788 786 785 784 783 782 781 780 779 777 776 775 774 773 773 772 771 770 769
832 833 833 833 833 833 833 832 832 832 831 831 831 830 830 830 830 830 829 828 828 827 826 826 825 825 824 824 823 823 822 821 821 820 819 819 818 817 816 815 814 813 812 812 811 810 809 808 806 804 802 800 799 799 798 797 797 796 796 795 793 792 792 791 790 790 789 787 786 785 784 783 782 780 779 777 776 775 775 774 773 772 770 769 768
832 832 833 833 833 833 832 832 832 831 831 831 830 830 830 829 829 829 829 828 828 827 826 826 825 824 824 823 823 823 822 821 820 820 820 819 818 817 816 815 814 813 812 811 811 809 808 806 804 803 802 799 798 798 798 798 797 797 796 795 793 792 792 792 791 790 790 788 787 786 785 783 782 781 779 777 776 775 775 774 772 771 770 769 768
832 831 831 831 832 832 831 831 831 831 831 830 829 829 829 828 829 829 828 828 828 827 827 826 825 825 824 823 822 822 821 820 820 820 820 819 818 818 817 815 814 813 812 811 810 808 807 805 803 802 801 800 799 799 798 798 798 797 797 796 794 793 793 792 792 791 790 789 788 786 785 784 783 781 780 778 777 776 775 774 772 771 770 769 768
831 831 831 830 831 831 831 830 830 830 830 830 829 829 828 828 828 828 828 828 827 827 827 826 825 825 824 823 822 822 821 821 820 820 820 819 818 818 817 816 814 813 812 811 809 808 807 804 802 801 801 801 800 800 799 799 799 798 798 796 795 794 794 793 793 792 791 790 788 787 786 785 783 782 781 779 778 777 775 774 773 771 770 769 768
831 831 830 830 830 830 830 830 830 830 830 829 829 829 828 828 828 827 827 827 827 827 826 825 824 824 823 823 822 822 821 821 820 819 819 818 818 818 817 816 815 813 812 811 809 808 806 803 801 801 801 801 801 801 800 800 800 799 798 797 796 795 794 794 793 792 791 790 789 787 786 785 784 783 782 781 779 777 776 774 773 772 770 769 768
832 831 830 830 830 830 829 829 829 829 829 829 828 828 827 827 826 826 826 826 826 825 825 824 823 823 822 822 822 821 821 820 819 819 818 818 818 817 816 816 815 814 812 811 809 807 805 803 802 802 802 803 802 802 802 801 800 800 798 797 797 796 795 795 794 793 792 791 789 788 787 786 785 784 783 782 780 778 777 776 774 773 772 770 769
832 831 830 830 830 830 829 829 829 828 828 828 828 827 826 825 825 825 825 825 824 824 823 822 822 822 821 821 820 820 820 819 818 818 817 817 817 816 816 815 814 814 813 811 809 807 805 804 804 804 804 805 804 804 804 802 801 800 799 798 798 796 796 796 795 793 793 792 790 789 788 787 787 785 784 783 781 779 778 777 776 775 774 772 771
832 831 830 830 829 830 830 829 829 828 827 827 827 826 825 824 823 823 823 822 822 821 821 820 820 820 821 820 819 819 818 817 817 816 816 816 816 816 815 814 813 813 812 811 809 808 806 805 805 805 805 806 805 805 804 803 802 801 799 799 799 797 797 796 795 794 794 792 791 790 789 788 788 786 785 784 782 781 780 778 777 777 775 774 773
832 831 831 830 830 830 830 829 829 828 827 826 826 825 824 824 822 821 821 820 820 819 819 819 820 821 820 820 818 817 816 815 815 815 814 815 815 815 814 813 811 811 811 810 809 807 806 806 805 805 806 806 806 805 805 804 802 801 800 800 799 798 797 797 796 795 794 793 792 791 790 790 789 788 786 785 784 782 781 780 779 779 777 776 775
832 832 831 831 830 830 829 828 828 827 826 826 825 824 824 823 821 820 820 818 818 817 817 817 818 818 817 817 815 814 813 813 812 813 813 813 814 814 813 811 809 808 808 807 807 806 806 806 805 805 806 807 807 806 805 803 802 801 800 800 800 798 798 797 796 796 795 794 793 792 791 791 790 789 788 786 785 784 783 782 781 780 779 778 777
832 831 831 830 830 829 828 827 827 826 825 825 824 823 822 821 820 819 818 817 816 816 815 815 815 815 814 813 812 811 810 810 810 810 811 812 812 813 812 810 808 806 805 805 805 805 805 806 806 806 806 807 807 807 805 803 802 801 801 800 799 798 797 797 796 796 795 794 794 793 792 792 791 790 789 787 786 786 785 784 783 782 780 780 778
831 830 830 829 829 828 827 826 825 825 824 823 823 822 821 820 819 818 817 816 815 815 814 813 812 812 811 811 809 808 808 808 808 808 809 810 811 811 811 810 808 805 804 804 804 803 803 804 805 806 806 807 807 807 805 803 802 802 801 800 799 798 798 797 796 796 795 795 795 794 793 793 792 791 790 789 788 788 787 786 785 783 782 781 779
830 829 828 828 827 826 826 825 824 823 823 822 821 820 819 819 818 817 816 815 814 813 813 811 810 810 810 809 808 807 806 806 807 807 807 809 809 810 810 810 808 806 804 803 803 802 802 803 804 805 806 807 807 807 805 803 802 801 801 800 799 799 798 797 797 796 796 796 795 795 794 794 793 792 791 790 790 789 788 787 786 785 784 782 780
828 827 826 826 826 825 824 823 823 822 821 820 819 819 818 817 816 815 815 814 813 812 811 809 809 810 809 807 806 806 805 805 805 805 805 807 808 808 809 809 808 806 804 803 802 801 801 802 803 804 805 806 807 806 805 803 802 801 800 800 799 799 799 798 797 797 797 797 796 795 795 794 793 793 792 791 790 790 789 788 787 786 785 783 782
826 825 825 824 824 824 823 822 821 820 820 819 818 818 817 816 815 814 813 812 812 810 809 807 807 808 808 807 805 805 804 804 804 804 804 805 806 807 807 807 807 806 804 802 801 800 800 801 802 803 804 805 806 805 804 803 801 800 800 799 798 799 799 798 797 797 797 797 796 796 795 794 793 793 792 791 790 790 789 789 788 786 785 784 783
824 824 823 823 823 823 821 820 819 819 819 818 817 816 816 815 814 813 812 811 811 809 808 807 806 805 806 806 804 804 804 803 803 803 803 804 804 805 805 805 805 804 803 802 801 799 799 799 801 802 803 805 805 804 804 803 801 800 799 799 798 798 799 798 798 798 798 798 797 796 795 794 793 793 792 791 791 790 789 789 788 787 786 785 784
823 823 822 822 823 821 819 818 818 818 818 817 816 815 814 813 812 811 811 810 809 808 807 807 806 804 804 804 804 803 803 803 802 802 802 802 802 803 803 803 803 802 802 801 800 800 799 799 799 801 802 804 804 804 803 803 801 800 799 799 799 799 799 799 798 798 798 798 797 796 795 794 793 792 791 791 791 791 790 789 788 788 787 786 784
822 822 821 821 821 819 817 817 817 817 817 816 814 813 812 811 809 809 808 808 808 807 806 805 805 804 803 803 803 803 802 802 802 801 801 801 801 801 801 801 801 801 801 800 800 799 799 798 798 799 801 803 804 803 803 803 802 800 799 799 799 799 800 799 799 799 798 798 798 797 796 795 794 792 791 791 791 791 790 789 789 788 787 785 784
822 821 820 820 820 818 816 816 817 817 816 814 812 811 810 809 808 808 807 806 806 805 803 803 803 803 802 802 802 802 802 801 801 801 800 800 800 799 800 800 800 799 800 799 799 799 798 797 798 799 800 801 803 803 802 802 802 800 799 798 798 800 800 800 799 799 799 798 798 797 796 795 794 793 792 792 792 791 790 789 788 787 787 786 785
820 819 819 819 817 816 815 815 815 815 813 811 810 810 809 808 808 807 806 806 805 803 802 802 801 801 801 801 801 801 801 800 800 800 799 798 798 798 798 798 798 798 798 798 798 798 797 797 797 798 799 800 802 802 802 801 801 801 799 798 798 798 799 799 799 799 799 799 798 797 796 796 795 794 793 792 792 791 790 789 788 787 787 786 786
819 819 818 817 815 814 814 814 814 813 811 809 809 809 808 807 807 806 805 805 804 803 802 801 800 800 799 799 799 799 799 799 798 798 797 797 796 796 796 796 797 797 797 797 797 797 796 796 796 797 798 799 801 801 801 801 801 801 800 799 798 797 797 798 799 799 799 799 798 797 797 796 795 794 793 792 792 792 791 790 789 788 787 786 785
819 818 817 814 813 813 813 812 812 811 810 809 808 808 807 806 805 804 804 804 803 803 802 800 799 798 797 797 797 797 797 797 797 796 796 795 795 795 795 795 795 796 796 796 797 796 796 795 795 795 797 798 799 800 801 801 801 801 800 799 799 798 797 797 798 798 798 798 797 797 797 796 794 794 793 792 792 792 790 790 789 788 787 786 785
817 816 814 812 812 812 812 811 810 810 809 808 808 807 806 806 805 803 803 802 801 801 800 799 798 797 796 796 796 795 794 794 794 794 794 794 793 793 793 793 794 795 795 795 796 796 795 794 794 795 796 797 797 799 799 800 800 800 799 799 798 798 797 798 798 797 797 797 796 795 795 795 794 794 793 792 792 791 790 789 789 788 787 786 785
815 813 812 811 811 811 810 810 810 810 809 808 808 807 806 805 804 803 802 801 800 799 798 797 796 795 794 794 794 793 793 793 793 792 792 792 791 791 792 792 793 794 794 794 795 795 795 795 794 795 795 796 796 797 798 798 799 799 799 798 798 798 798 797 797 796 796 795 795 794 794 793 793 793 792 792 791 790 790 789 788 787 787 786 784
812 811 811 810 809 809 809 809 810 810 809 808 807 806 804 803 802 801 800 799 798 798 797 796 795 794 794 793 793 792 792 792 791 791 791 791 790 790 790 791 792 792 792 793 794 794 794 794 794 794 794 794 794 795 796 797 798 798 797 797 797 797 797 797 796 796 795 794 793 793 792 792 792 792 792 791 791 790 789 789 788 787 786 785 784
810 810 810 810 809 809 809 809 810 809 809 807 806 804 802 801 800 799 798 797 796 796 795 795 794 794 793 792 792 792 791 791 791 791 790 790 789 789 789 790 790 791 791 792 792 792 793 793 792 792 793 793 793 794 795 795 796 796 796 796 796 796 796 795 795 794 793 792 791 791 791 791 791 791 791 791 790 790 789 788 787 787 786 785 783
809 809 809 809 808 809 809 809 809 809 808 806 805 803 801 800 798 797 796 795 794 793 793 793 792 792 792 791 791 791 790 790 790 789 789 789 789 788 788 788 789 789 790 790 790 791 792 792 791 791 791 791 792 792 793 794 794 795 794 795 795 794 794 794 793 792 791 790 790 790 790 790 790 790 790 790 790 789 788 788 787 786 785 784 782
Wind_Speed
11 9 8 8 9 10 10 11 12 12 12 13 13 14 14 14 13 13 14 14 13 14 15 16 16 16 15 15 16 18 19 19 20 20 20 20 21 18 16 19 19 17 16 15 15 15 16 16 17 17 17 16 16 17 18 18 18 17 17 16 14 13 14 11 6 7 11 15 14 10 12 16 15 14 13 12 12 11 9 7 5 4 5 5 7
9 8 7 8 10 10 11 12 12 13 13 14 13 14 13 13 14 14 14 14 14 15 15 15 15 15 15 14 16 18 19 20 21 22 22 22 21 19 18 17 16 17 17 15 15 16 16 16 17 18 18 16 16 17 18 19 19 18 18 16 15 14 14 13 10 8 9 14 16 13 13 15 14 15 15 12 11 11 10 9 8 6 6 6 6
7 7 7 10 11 11 12 12 12 12 13 13 13 13 13 13 14 15 16 16 15 14 14 14 13 14 15 15 16 18 19 21 22 21 21 21 20 20 20 17 15 16 15 14 16 18 18 18 18 18 17 16 17 19 19 20 19 18 18 17 16 15 15 14 13 10 10 12 14 15 15 14 12 12 13 13 12 12 11 10 7 6 6 6 5
8 8 8 10 11 10 12 12 12 13 13 13 14 14 13 13 13 14 16 16 15 14 15 15 12 12 14 15 16 19 20 22 23 22 20 19 19 19 19 17 15 14 14 15 19 21 19 19 20 20 18 17 19 20 20 20 20 19 19 18 17 17 16 16 15 13 12 12 13 14 15 14 13 11 11 13 13 11 11 10 7 6 6 7 6
10 10 9 9 9 9 11 13 14 13 13 13 14 14 14 14 14 14 15 15 15 15 16 16 13 13 14 13 16 19 21 23 24 22 20 19 18 18 17 16 15 14 15 17 20 19 18 18 19 19 19 18 18 18 19 19 19 19 19 17 17 18 18 17 16 15 13 12 13 14 13 13 14 11 11 13 12 11 11 10 10 9 9 8 8
9 9 8 9 10 11 12 13 13 13 13 13 14 14 14 14 14 14 15 15 15 15 15 15 13 14 14 14 17 20 22 23 23 21 20 19 17 17 16 15 15 14 16 18 18 17 17 17 16 17 18 18 17 18 20 19 18 18 19 18 18 19 19 18 17 16 14 13 13 13 13 13 13 12 14 14 11 11 12 11 11 12 11 11 9
6 7 8 10 11 11 11 12 12 12 12 13 13 13 12 13 13 13 13 14 14 14 14 14 13 13 15 17 18 21 23 23 23 21 19 18 16 16 16 15 14 14 16 18 18 16 16 16 16 17 18 18 18 19 20 19 17 17 18 18 18 18 17 17 17 17 15 14 13 13 13 13 12 13 15 15 12 12 14 13 12 13 13 13 13
7 8 9 9 9 8 9 10 11 11 11 12 12 12 11 12 12 12 12 12 13 13 13 14 13 12 14 17 16 19 23 24 24 21 18 17 16 15 16 16 14 13 15 15 16 16 17 16 16 17 18 18 19 20 19 18 17 16 17 18 18 18 17 16 16 16 15 14 12 13 13 13 13 14 15 16 15 13 15 15 13 14 14 14 13
9 9 8 7 7 7 8 9 10 10 10 11 13 13 12 12 12 12 12 11 11 12 13 13 13 11 12 12 12 16 21 24 25 22 19 18 17 16 16 16 13 13 14 13 14 16 17 16 16 17 18 20 21 20 19 18 17 16 16 17 17 17 17 16 15 15 14 13 12 13 13 12 14 16 15 16 16 15 16 16 14 15 16 14 12
9 7 7 7 7 6 6 7 9 9 10 11 13 13 13 12 12 12 13 13 14 15 14 14 14 12 12 12 12 16 22 27 28 23 19 20 20 18 17 14 12 13 14 13 13 15 16 16 16 17 19 22 23 22 21 19 18 17 16 15 16 16 15 14 13 13 13 12 12 13 12 11 14 15 14 15 16 16 17 17 16 17 17 14 11
7 6 6 7 7 6 5 6 8 8 10 11 12 12 12 13 12 12 12 13 14 14 14 14 15 14 14 14 14 18 24 29 30 23 18 19 20 20 18 14 12 13 13 13 14 13 14 16 15 15 19 23 24 24 23 20 18 18 16 14 14 14 13 11 11 13 13 12 12 12 11 11 13 14 14 15 16 17 17 17 16 16 15 13 10
6 6 6 6 6 5 4 5 7 8 9 10 10 10 11 12 12 11 11 12 12 12 12 13 13 13 14 14 14 17 23 28 29 23 18 19 20 18 16 13 12 14 14 13 13 13 13 14 14 14 18 22 25 26 24 21 20 20 16 14 13 13 11 10 11 13 13 12 12 12 12 12 12 13 13 15 16 16 16 16 16 15 15 13 11
7 7 7 7 6 5 4 5 5 6 8 8 8 9 9 9 10 11 11 11 11 11 11 11 11 12 15 15 12 14 20 26 28 23 18 20 21 16 13 13 13 14 14 14 13 13 14 14 14 15 17 20 24 26 24 22 22 20 17 16 15 13 11 11 12 12 12 12 12 12 13 13 12 13 13 14 15 16 15 16 16 16 15 14 14
7 6 7 8 7 5 5 4 4 5 7 7 7 8 8 9 9 10 10 10 10 10 10 11 11 12 14 14 11 11 17 23 27 25 20 20 20 18 14 13 12 13 13 13 13 13 14 15 15 15 16 19 23 25 24 22 21 19 18 19 18 15 12 13 15 13 11 12 12 12 12 13 13 13 14 14 13 13 14 16 17 17 16 15 15
7 7 7 8 8 7 6 4 4 5 5 5 5 6 7 7 8 9 9 10 10 11 11 12 12 12 13 13 11 9 13 19 23 25 25 22 19 19 18 14 13 13 13 12 12 12 13 14 14 14 15 19 22 23 23 22 20 19 20 19 18 17 15 15 15 14 12 12 11 10 10 11 12 14 14 13 12 11 13 15 16 15 15 14 13
8 9 8 8 9 10 8 5 5 6 5 5 6 7 7 7 7 8 9 9 10 12 12 12 12 13 12 14 13 9 11 17 20 23 26 25 20 19 19 16 13 12 12 12 11 11 11 13 15 15 14 17 20 21 22 20 18 19 20 18 17 18 16 15 14 13 13 13 11 10 10 10 11 12 12 12 11 12 13 13 12 12 13 12 11
8 8 9 9 9 11 10 7 6 6 6 7 8 7 7 7 7 7 8 9 9 10 11 10 11 12 12 12 13 11 10 15 19 21 24 25 22 19 19 18 16 14 13 12 10 9 9 13 17 17 15 16 18 19 21 20 18 19 20 18 16 17 16 16 15 14 14 13 10 9 10 10 10 10 10 10 11 12 12 11 11 12 12 10 8
7 7 9 9 8 9 9 7 7 7 6 7 7 7 6 6 6 5 6 8 8 9 9 9 9 10 10 10 12 11 11 15 19 20 20 22 22 18 17 18 16 15 14 13 10 10 9 11 17 19 17 16 16 16 19 19 18 18 19 17 16 15 17 19 18 16 15 14 11 10 9 9 8 8 8 9 11 13 13 13 13 12 10 9 8
7 8 8 7 8 9 8 7 7 7 6 6 6 5 5 5 5 6 7 7 7 8 8 9 9 9 9 9 10 10 10 13 17 18 18 19 20 18 16 16 15 14 14 13 10 11 11 11 15 18 19 18 15 15 16 16 17 17 16 16 15 16 19 22 19 17 17 15 12 12 10 9 8 6 6 9 11 12 12 13 14 13 11 10 10
7 8 6 7 9 10 10 10 9 8 8 8 7 5 5 6 6 7 7 6 6 6 6 6 7 8 9 9 9 9 9 11 14 16 16 16 17 16 15 15 15 14 14 13 11 13 14 14 14 16 19 18 16 16 15 14 15 15 15 15 16 17 20 20 17 16 17 15 13 13 12 12 10 8 8 9 11 13 13 12 13 13 11 11 11
6 7 6 7 10 10 9 9 10 10 10 9 8 7 7 7 6 5 5 5 4 4 4 4 5 7 8 8 9 9 8 9 12 14 14 14 15 14 13 13 13 13 13 13 12 12 13 15 16 16 17 18 17 16 15 13 13 14 14 16 17 16 18 17 15 16 17 15 13 13 13 14 14 12 11 10 11 14 14 12 11 11 11 11 12
6 6 6 7 8 7 7 7 8 8 8 7 7 7 7 6 5 4 4 5 4 3 4 4 3 5 6 7 8 9 8 7 8 11 12 13 14 13 11 11 12 12 13 12 11 9 10 13 15 16 16 17 17 16 14 11 12 14 15 17 18 15 14 15 15 15 16 15 14 14 14 14 14 14 13 12 11 12 12 12 11 12 11 12 12
6 6 7 6 5 6 6 6 6 6 5 4 5 5 5 5 5 5 5 5 4 5 6 5 4 4 5 6 7 8 8 7 7 7 9 12 13 13 12 12 11 11 13 14 11 8 8 11 14 15 16 18 17 16 14 10 9 12 14 17 19 14 12 14 15 15 16 14 14 15 15 14 14 13 13 13 11 10 8 10 12 13 12 12 12
6 6 6 4 4 5 4 4 5 5 5 4 3 4 4 5 5 5 5 5 4 5 7 4 3 4 5 6 7 7 7 8 7 7 9 11 13 13 13 13 12 13 15 15 11 8 8 10 12 14 16 16 15 15 13 8 7 11 13 15 16 14 14 14 14 14 15 14 13 14 14 14 14 14 14 14 12 10 8 8 11 12 12 13 12
6 6 4 3 3 4 4 4 4 4 4 4 3 4 3 4 4 5 4 4 5 6 7 6 5 5 4 5 7 8 8 8 7 6 8 10 13 14 14 13 13 14 17 14 10 9 10 9 11 14 16 17 16 15 13 9 8 11 13 13 14 14 15 15 13 14 15 14 13 14 13 14 14 14 15 15 11 10 10 10 11 12 13 14 13
3 5 3 2 2 1 2 3 4 4 5 5 5 5 3 1 3 4 4 4 5 6 7 7 7 6 5 5 6 8 9 8 5 4 6 8 11 13 13 13 13 13 14 13 11 12 10 8 11 15 17 18 17 14 12 13 13 12 13 14 14 14 16 15 14 15 15 14 13 14 14 14 14 14 16 15 11 10 12 12 12 12 12 14 13
4 4 3 1 1 1 2 2 2 3 4 5 6 6 5 2 2 3 4 4 5 6 7 7 7 8 7 6 5 7 10 7 2 2 6 8 11 12 11 12 13 12 12 12 13 12 10 10 15 17 14 14 14 12 11 14 15 15 14 14 14 15 15 14 15 15 14 14 14 13 13 15 14 14 15 15 13 12 13 13 13 13 12 12 10
5 4 4 3 2 1 2 2 2 2 3 6 8 7 5 4 4 4 5 5 5 6 6 7 8 8 9 9 7 9 12 7 1 3 8 10 11 12 10 11 13 12 11 12 13 13 12 15 19 16 10 12 14 13 12 13 13 15 15 13 14 15 14 14 15 15 14 14 14 14 14 15 15 14 14 14 14 15 15 15 14 14 15 14 9
5 4 6 4 2 1 3 3 3 4 4 7 9 7 6 6 6 7 7 6 7 8 8 9 10 10 10 11 10 10 11 8 6 10 13 11 10 11 11 11 12 11 11 11 13 15 16 17 16 11 11 13 12 13 14 13 11 12 14 13 13 15 14 14 15 15 15 15 14 14 15 15 14 15 14 14 15 15 15 16 16 15 17 17 11
6 6 7 5 3 3 4 4 4 5 5 7 9 8 7 8 8 9 9 9 10 11 11 12 13 13 13 13 12 11 12 12 14 16 15 11 10 11 12 12 11 11 11 12 13 16 17 15 12 12 14 13 12 11 13 13 12 11 12 12 13 13 13 14 15 15 14 15 14 14 14 14 14 15 14 14 15 15 14 15 15 15 17 17 14
6 5 6 5 4 4 6 6 5 5 5 6 9 9 9 10 11 12 11 10 12 13 14 14 15 14 15 16 15 15 15 15 16 16 14 11 10 11 12 13 12 12 12 13 14 16 15 12 11 12 12 11 11 11 11 12 12 12 11 12 13 13 13 15 15 15 14 14 14 14 14 14 14 14 14 14 14 15 14 14 14 14 15 16 14
6 7 7 5 6 5 6 7 9 9 6 5 7 9 10 11 12 12 12 12 13 14 14 15 16 16 16 18 19 20 19 18 17 16 14 12 11 12 14 15 14 13 13 14 15 15 13 10 9 9 10 10 10 11 11 11 11 12 11 12 13 13 13 14 15 14 14 14 14 14 14 14 13 14 14 14 14 14 14 14 15 15 15 15 14
7 9 8 8 7 7 7 7 10 12 10 8 8 9 10 11 11 12 12 12 14 15 16 16 16 17 18 19 20 22 23 22 20 19 17 16 15 14 15 16 17 17 15 15 17 14 9 10 9 8 9 10 10 10 11 11 11 11 11 13 12 12 13 14 13 14 15 14 13 14 14 14 13 14 14 14 14 14 14 15 15 15 14 14 14
6 8 8 7 7 8 9 9 10 12 12 11 10 10 12 12 12 12 12 12 12 13 14 13 13 12 12 12 14 17 20 21 20 19 19 18 16 14 15 17 19 19 16 14 15 13 7 9 10 9 9 10 10 10 11 11 11 10 11 11 11 11 12 12 12 13 15 14 13 14 14 13 14 14 14 13 13 13 14 14 14 13 13 13 14
6 6 7 7 7 8 10 10 11 12 12 12 11 12 13 13 12 12 12 12 13 11 8 7 8 8 9 9 11 12 14 15 15 15 16 16 13 12 14 16 18 17 12 12 14 11 5 8 9 8 8 8 9 9 10 11 10 10 11 11 10 10 12 12 10 12 15 14 13 14 14 13 14 14 14 13 13 13 13 13 13 13 13 14 14
7 8 8 7 7 9 11 11 12 13 13 13 12 12 13 13 13 13 12 12 13 12 7 6 6 7 9 10 12 11 11 11 12 12 13 12 11 11 13 14 16 17 12 9 11 6 3 6 6 7 7 7 8 9 10 12 9 8 10 12 10 10 13 12 10 13 14 13 12 14 14 13 14 14 13 13 13 13 12 13 13 12 13 13 14
6 8 9 8 8 10 11 11 11 12 12 13 12 12 12 13 13 13 12 12 13 12 9 8 7 7 9 12 12 11 9 9 10 11 12 11 11 12 13 13 15 18 16 9 3 0 3 3 3 5 6 7 8 9 10 12 10 6 8 11 10 10 12 12 12 14 13 12 11 13 13 13 14 13 12 12 13 12 12 13 13 12 12 13 13
7 9 11 9 9 11 11 10 10 10 10 11 11 10 11 11 11 12 12 11 12 12 10 9 7 6 9 12 11 8 8 9 10 11 12 13 13 13 14 13 13 15 17 14 9 4 4 4 4 4 5 6 8 9 9 11 11 8 7 9 9 9 11 11 11 13 12 11 11 12 12 12 13 13 12 11 12 12 12 12 12 11 12 13 12
8 10 10 7 7 10 11 10 8 8 8 9 10 10 10 10 11 12 12 12 13 13 12 11 9 6 7 10 9 6 7 10 10 10 10 11 12 13 13 12 13 13 13 13 11 5 2 3 3 3 4 5 8 10 9 12 13 11 8 8 8 8 10 11 10 11 11 11 11 11 11 11 13 13 12 11 12 13 12 12 12 12 12 13 12
8 8 6 4 5 9 11 9 7 7 8 8 9 9 9 10 10 11 12 12 13 13 14 14 11 7 7 8 7 5 6 9 9 8 10 10 11 12 12 12 13 13 10 10 11 8 0 4 4 4 5 6 8 8 8 12 15 13 9 9 9 9 9 10 10 10 10 10 10 10 11 11 12 12 12 11 12 13 12 12 12 12 12 12 11
7 8 8 6 6 11 12 8 6 7 8 9 9 8 8 9 10 9 9 10 10 12 13 12 10 9 8 7 6 5 7 9 8 5 7 10 11 12 12 11 11 10 8 8 11 9 2 4 3 3 4 6 8 8 7 10 14 14 10 8 9 9 9 9 10 10 10 10 10 11 12 12 12 12 11 12 12 12 12 12 12 12 12 12 12
8 10 9 6 8 12 11 7 8 8 8 8 9 9 8 9 9 8 6 6 6 8 10 10 9 9 8 7 5 4 5 7 7 5 4 5 5 7 9 9 9 8 6 6 10 9 4 1 2 1 1 4 7 8 7 8 11 14 10 7 8 9 9 8 9 9 10 10 11 11 12 13 13 13 12 12 12 11 11 11 11 11 12 13 13
9 11 9 7 8 11 9 7 7 8 9 9 12 11 8 9 10 10 10 9 9 8 8 7 6 6 7 6 5 4 4 6 7 6 6 6 4 4 6 7 8 8 6 5 8 9 5 1 1 2 1 2 6 8 7 6 8 13 12 6 5 6 8 8 8 9 10 10 11 11 11 11 12 13 12 12 12 11 11 11 11 12 12 13 13
10 10 9 8 10 9 5 5 5 7 9 12 13 10 10 12 12 12 13 13 13 14 12 8 5 5 5 4 4 5 5 7 8 8 7 6 5 5 6 7 8 8 6 5 8 9 6 3 2 1 0 2 5 7 8 7 7 10 13 9 4 3 4 5 5 8 10 11 11 11 11 11 11 12 12 12 11 11 11 11 11 12 12 12 11
10 9 8 9 10 7 4 5 6 9 10 9 8 10 12 13 11 10 11 12 12 14 16 13 7 5 4 4 4 5 5 7 8 8 8 8 6 5 5 6 7 7 6 6 8 10 8 3 2 1 1 2 5 7 8 8 7 9 13 11 6 2 2 2 4 7 10 9 9 11 11 10 11 11 11 11 11 10 10 11 11 11 12 12 11
9 9 10 10 8 6 6 6 8 10 11 10 10 10 12 13 11 9 9 10 9 10 14 16 13 8 6 5 4 3 4 5 6 7 8 8 7 6 6 5 6 7 7 6 7 11 11 6 4 3 2 2 3 5 7 7 8 10 12 10 5 1 1 1 6 10 11 11 13 13 11 9 10 11 10 10 10 10 10 11 11 11 12 12 12
8 10 11 9 6 7 8 8 7 9 12 13 13 13 14 15 15 13 11 11 10 9 11 14 15 11 9 9 9 8 5 3 3 5 6 7 7 6 5 4 4 5 5 5 6 10 11 7 4 4 3 3 3 4 6 6 7 9 11 10 8 6 6 7 10 13 15 17 18 17 12 9 10 11 10 9 10 11 11 11 10 11 12 12 12
10 9 9 7 5 7 9 9 10 11 12 13 15 16 16 15 16 16 15 15 15 13 12 14 16 13 10 8 8 10 8 6 5 6 7 7 7 5 3 2 3 4 5 6 6 7 8 5 1 3 3 3 3 4 5 7 7 8 10 11 12 12 11 10 11 13 17 19 19 17 11 8 8 9 9 9 10 11 11 11 11 11 12 12 12
8 5 7 9 6 8 9 10 11 13 15 14 14 15 15 14 13 13 13 14 14 14 14 15 16 16 14 12 11 12 12 9 9 11 11 9 6 4 2 1 2 4 6 6 6 6 6 5 3 4 4 4 4 3 5 7 8 8 10 11 12 11 11 11 12 15 18 19 18 15 11 8 6 7 8 8 9 10 11 11 11 11 11 12 12
5 4 7 8 8 10 10 9 10 13 15 15 15 16 15 13 13 14 14 13 12 12 11 11 12 14 14 13 12 12 12 9 8 9 11 11 8 4 2 2 3 4 6 6 6 6 6 6 5 5 5 4 3 4 5 7 9 9 10 11 11 11 12 14 16 18 20 19 15 12 10 7 4 5 7 8 8 9 10 10 11 11 11 11 11
4 5 8 7 8 9 8 9 11 13 15 15 17 18 17 15 14 14 15 14 13 11 11 10 11 12 12 12 11 10 10 10 10 8 8 9 9 7 4 4 4 5 6 6 5 5 7 8 8 8 7 6 5 5 6 8 9 9 9 9 9 11 13 16 17 18 18 15 12 10 9 5 2 4 7 8 8 8 9 10 10 10 11 11 11
Wind_Direction
50 32 18 30 32 26 30 25 13 7 13 18 5 3 20 23 15 16 17 17 20 22 24 24 20 13 14 21 23 23 20 12 8 4 4 5 356 350 8 17 6 356 359 4 12 15 9 5 2 1 360 0 8 9 6 8 8 6 8 4 3 14 16 13 357 336 347 353 356 358 2 6 11 11 12 14 11 9 12 4 336 290 276 257 226
49 35 8 20 29 23 24 24 15 10 19 24 12 5 13 15 16 19 17 14 15 22 24 21 19 15 15 24 28 25 22 16 12 8 5 4 357 349 357 9 5 357 356 1 8 12 11 8 4 3 2 2 12 16 10 7 6 6 7 3 359 3 9 9 359 345 345 348 352 356 356 0 9 13 10 6 2 4 9 4 355 341 317 297 262
48 33 11 23 25 18 20 24 22 17 19 23 16 11 11 10 17 23 20 15 16 23 24 15 17 20 17 24 31 27 23 18 12 8 5 1 354 347 350 359 4 357 353 0 13 17 18 12 3 2 4 6 15 18 12 7 5 3 3 1 358 358 359 359 357 352 342 340 349 353 349 351 5 14 10 8 8 7 6 0 356 352 337 320 296
36 16 21 35 25 17 22 27 33 26 21 23 19 14 14 12 17 21 19 18 17 20 20 7 9 28 24 23 32 30 24 17 10 5 2 357 351 348 349 356 1 353 350 11 25 23 18 12 7 10 15 16 19 19 11 5 2 357 357 360 360 355 352 351 354 353 343 337 344 347 344 350 2 8 8 12 13 12 12 9 5 9 358 338 316
29 13 24 41 33 32 38 36 37 29 21 23 20 15 17 17 16 17 17 18 16 18 16 3 6 30 28 27 40 36 23 14 7 1 358 354 350 348 347 353 356 350 356 19 28 22 14 12 14 19 22 20 18 14 7 4 359 354 354 358 356 352 349 349 351 351 345 338 336 340 349 357 356 359 12 15 9 8 17 17 13 18 17 359 335
33 16 11 33 39 38 42 41 39 32 25 25 21 15 18 21 19 19 19 17 17 18 10 359 5 22 27 41 50 39 24 15 8 360 354 352 351 348 347 353 356 354 6 21 23 17 13 13 18 25 25 21 18 11 6 3 357 351 352 354 351 348 345 345 347 347 344 339 335 342 355 354 349 1 18 18 13 11 11 8 6 12 18 12 354
28 23 19 37 40 30 34 40 40 37 31 28 24 18 22 27 24 21 22 21 20 18 6 2 11 23 38 54 52 37 26 16 8 1 356 353 351 345 345 352 357 1 12 20 19 14 13 15 24 30 27 24 21 13 6 0 353 349 350 350 347 344 342 341 342 342 340 339 342 347 348 346 355 13 20 20 22 16 5 357 353 356 4 7 1
10 29 36 43 43 30 32 39 39 38 36 33 29 22 24 33 30 26 29 27 22 20 12 10 15 26 44 55 49 34 26 16 9 5 360 356 353 346 345 349 358 10 15 17 18 17 16 17 23 28 29 27 21 14 7 359 353 348 347 346 342 340 339 338 337 338 340 339 342 347 345 350 10 19 18 22 23 11 1 356 347 345 350 354 356
23 30 30 33 41 38 35 40 41 39 38 37 34 26 23 32 35 32 31 28 26 27 23 16 13 19 31 38 42 41 30 16 11 9 5 1 356 351 349 350 1 18 19 19 23 21 19 16 12 19 26 20 11 9 6 0 355 348 343 341 338 334 335 335 336 340 343 342 343 348 351 1 13 14 14 19 15 2 357 354 345 343 346 349 353
41 24 20 32 37 33 32 43 48 44 42 41 38 31 22 23 34 36 29 25 26 30 29 20 14 15 13 11 31 48 33 16 10 10 10 7 2 358 353 352 10 25 22 27 29 20 18 14 4 12 23 13 2 2 3 359 356 350 343 338 332 329 331 335 342 349 350 349 349 351 358 8 12 11 10 10 6 359 356 350 346 348 351 352 352
46 20 28 45 42 29 26 41 48 44 44 44 41 37 25 17 27 37 35 29 24 26 30 26 19 17 11 11 31 43 29 14 8 7 10 8 4 2 357 355 15 25 21 30 34 23 21 16 5 13 22 12 2 1 1 2 360 351 344 342 334 332 339 349 358 1 356 353 352 355 5 9 6 6 7 4 0 356 352 348 348 354 355 350 345
41 26 26 35 45 47 27 36 49 44 43 45 40 39 32 21 20 28 39 38 24 21 32 31 25 19 11 16 36 40 27 15 8 5 7 8 5 4 3 6 25 30 23 26 31 27 24 19 11 17 20 12 5 2 1 5 5 355 348 350 344 343 357 11 11 6 3 360 356 1 9 4 359 3 6 2 355 347 345 346 346 347 346 340 332
30 28 21 14 34 62 43 27 43 46 46 47 40 35 33 29 23 22 33 37 23 19 27 25 27 25 16 17 33 36 26 19 12 8 5 5 8 10 12 19 30 32 27 27 30 29 25 19 16 15 14 11 7 3 1 4 4 359 357 358 353 354 11 20 14 10 12 11 2 359 2 358 354 357 359 358 352 343 341 341 338 337 333 328 324
24 20 26 15 15 51 64 28 22 47 50 45 40 35 28 29 29 24 28 27 15 17 25 22 28 32 20 14 22 30 25 19 17 17 11 4 10 16 15 18 26 29 30 32 33 33 26 20 18 13 11 11 8 5 5 6 3 2 4 3 358 4 19 20 13 11 13 13 4 353 351 350 347 346 348 351 347 340 336 329 323 323 323 322 324
24 4 23 31 19 32 54 31 7 35 49 39 35 34 28 27 26 24 28 23 10 13 24 26 28 28 20 15 17 22 20 13 11 17 15 8 10 13 8 14 27 30 29 28 30 36 33 28 25 19 14 11 8 9 11 9 5 5 6 4 1 7 15 14 10 8 4 2 356 347 342 339 334 330 333 338 338 332 325 315 311 317 324 329 332
32 8 15 34 32 31 35 23 7 14 20 22 23 27 28 25 21 20 24 24 16 13 18 22 22 19 16 15 13 8 7 5 4 9 14 15 15 10 4 8 20 26 24 22 27 34 31 28 26 20 15 10 8 14 17 10 6 7 5 2 2 5 7 7 8 5 356 349 346 342 338 336 334 329 328 333 336 333 322 314 323 339 341 336 334
33 15 12 17 27 33 29 19 18 16 9 14 20 23 22 19 19 18 15 17 17 13 15 18 17 16 13 10 8 2 357 359 360 4 12 16 18 13 5 4 11 19 20 17 27 39 37 33 29 22 16 11 9 17 21 12 5 8 5 1 2 3 2 1 1 359 354 349 347 345 340 341 344 340 342 349 354 354 348 341 350 358 349 336 337
21 22 25 12 14 32 32 24 28 30 24 21 23 24 21 17 17 9 5 17 20 13 14 13 8 14 16 7 5 3 355 350 351 357 8 16 20 18 7 2 6 12 12 10 24 48 54 42 33 24 14 9 7 13 19 13 5 3 2 0 1 360 357 355 353 353 355 354 355 352 347 349 348 344 357 12 10 11 13 9 4 2 353 342 340
26 40 39 16 12 27 30 29 36 41 41 39 36 34 32 31 22 3 1 22 30 18 11 6 1 8 14 8 4 5 357 345 342 350 2 13 21 22 13 5 3 2 3 4 16 34 30 15 16 15 5 360 0 2 8 9 3 357 356 358 357 352 351 352 352 352 353 352 355 356 353 354 356 357 16 27 15 6 7 8 6 5 356 341 334
40 54 44 23 24 23 16 16 24 33 37 36 35 37 39 40 32 13 6 21 31 21 4 357 4 10 10 8 9 6 357 343 340 349 358 8 18 23 17 10 2 355 358 2 7 21 19 2 356 358 353 350 353 354 355 360 358 351 347 349 349 347 348 351 354 355 352 349 356 1 2 5 10 19 34 36 21 6 359 360 1 359 351 336 327
37 50 41 29 27 21 10 5 11 26 32 23 16 20 24 28 31 24 11 6 15 17 355 349 11 19 12 10 9 4 355 342 340 347 354 0 9 15 16 14 8 357 354 357 2 12 13 360 348 345 343 343 347 348 346 348 352 347 341 342 346 350 352 354 359 359 354 355 3 4 5 11 15 17 24 28 18 7 1 356 351 349 343 330 322
37 49 55 44 26 18 13 357 358 24 32 19 11 13 12 11 16 24 11 351 346 349 344 349 13 15 11 8 0 355 351 344 339 340 347 355 358 0 6 10 10 3 350 346 353 3 6 357 344 335 335 338 342 346 343 342 351 355 350 346 348 355 359 359 4 3 356 358 6 3 4 12 12 8 9 10 4 1 4 2 353 346 340 332 324
49 56 62 51 17 13 19 359 356 17 24 18 15 1 355 6 8 5 355 343 337 332 332 345 2 357 1 3 353 349 345 341 343 345 349 353 352 352 353 352 356 358 343 336 342 349 355 354 339 327 329 332 335 343 342 332 346 5 4 352 350 2 14 7 5 6 360 359 4 4 4 7 8 5 1 355 348 345 355 7 2 351 342 338 332
56 57 62 54 16 17 16 354 1 13 4 8 7 338 349 15 6 352 343 334 329 322 319 326 339 342 351 350 343 345 337 331 349 6 0 356 354 351 348 343 344 343 331 329 341 349 349 350 336 322 324 329 332 338 337 331 357 20 17 357 352 14 26 11 5 8 3 359 2 3 3 1 2 359 348 342 345 347 347 1 6 359 352 346 343
61 63 61 48 27 19 356 346 11 8 338 331 310 301 338 13 354 339 337 330 327 324 320 323 326 335 349 338 332 340 333 325 342 2 359 360 359 354 350 346 345 336 322 319 340 358 352 343 327 315 320 328 330 328 335 358 22 27 19 356 353 19 24 9 10 14 3 358 1 1 359 358 357 352 342 342 354 4 359 358 359 359 359 357 358
54 86 82 52 45 24 337 342 2 351 322 311 293 283 280 307 324 324 328 331 330 321 317 320 327 336 339 314 308 323 326 319 323 343 357 5 2 356 352 349 345 336 322 321 342 356 347 323 312 312 318 328 330 328 348 10 10 15 20 359 352 17 23 13 19 18 1 356 0 357 354 355 354 350 348 352 4 10 8 2 351 350 357 358 1
26 80 60 14 159 205 296 295 312 319 306 303 301 292 282 278 297 312 319 324 323 319 319 323 328 332 331 318 305 320 329 327 319 351 358 360 359 356 351 346 348 346 338 336 339 337 326 308 306 309 321 344 352 356 18 20 4 5 16 3 356 15 22 16 19 14 360 358 358 352 353 356 356 355 356 0 4 2 1 356 347 348 350 345 350
23 45 2 356 145 174 318 272 249 281 305 315 319 314 307 312 316 311 309 303 303 312 317 318 317 320 328 334 332 330 337 346 12 337 340 345 352 354 345 341 349 349 343 339 330 323 322 313 306 309 342 14 10 6 17 24 13 3 360 357 7 19 18 14 12 6 3 3 356 353 360 1 360 360 359 0 360 355 353 351 350 354 349 336 339
358 14 354 358 114 32 337 310 307 334 335 321 318 311 292 283 284 290 289 277 280 292 294 294 298 300 309 321 324 324 333 340 324 320 326 330 339 345 339 337 345 344 336 334 330 326 324 315 311 334 15 19 11 7 7 12 17 6 353 355 11 16 15 14 8 2 4 4 356 359 7 4 1 2 360 358 357 354 355 356 357 2 355 346 356
342 2 350 354 49 13 333 320 335 343 328 311 309 301 282 272 274 280 275 263 268 280 282 283 289 290 289 295 301 306 315 318 314 314 317 318 325 333 331 329 335 335 327 328 331 328 322 320 339 14 19 8 9 13 2 358 3 2 356 2 10 11 14 13 4 1 6 1 355 4 9 4 2 3 359 357 356 354 358 1 3 6 359 352 4
337 341 322 335 40 19 330 319 319 309 294 298 305 302 292 284 281 280 274 265 267 275 278 280 285 287 285 286 288 289 292 299 305 305 306 309 316 321 319 320 325 324 317 316 321 323 323 335 7 21 10 359 7 9 360 359 357 350 354 6 7 8 14 10 3 6 6 357 357 8 9 4 3 2 358 358 356 355 359 3 7 10 2 356 5
304 292 296 341 22 1 315 312 311 305 300 295 291 291 290 287 284 280 273 267 268 274 278 279 281 286 287 288 290 290 287 287 290 293 296 300 305 310 311 310 312 312 308 304 302 304 318 344 10 22 11 2 4 3 359 358 348 342 1 15 5 2 12 9 4 8 4 354 360 9 7 4 4 0 358 359 356 356 3 8 11 11 4 1 4
292 302 324 357 359 326 310 310 306 305 310 308 296 291 290 290 291 290 282 273 272 277 278 276 280 288 291 292 293 292 289 286 282 281 285 289 295 304 303 300 303 303 296 290 286 285 309 347 5 28 23 3 359 1 355 346 339 347 15 21 1 356 9 8 3 7 3 357 5 11 5 4 6 2 0 1 358 359 7 12 12 9 6 4 360
295 310 322 328 316 303 303 300 294 296 302 305 300 296 294 294 293 292 291 286 282 281 274 267 274 287 289 291 297 297 294 291 284 277 278 283 291 297 294 295 303 301 284 267 266 269 299 349 360 21 23 0 357 360 345 334 338 354 15 15 356 356 8 4 3 11 6 359 7 12 5 4 8 4 1 1 1 5 11 11 6 3 6 5 353
291 296 302 305 301 299 298 297 298 300 300 299 296 294 297 301 299 296 298 298 297 297 281 255 269 289 288 293 307 305 296 294 289 278 275 279 285 287 286 292 305 305 278 235 236 255 319 3 355 7 19 1 354 353 335 329 345 3 5 357 352 5 11 2 5 18 10 2 8 11 5 7 11 5 359 2 5 10 13 7 359 359 4 359 345
284 288 294 297 299 303 304 302 301 301 298 296 296 296 299 304 305 305 305 301 302 308 300 261 270 295 297 302 315 313 297 289 284 274 269 271 271 270 273 282 297 305 291 234 216 233 14 16 347 358 18 1 348 347 333 328 345 10 359 342 344 7 7 360 14 27 14 2 8 11 7 9 11 5 2 7 11 12 9 2 356 359 3 355 347
285 292 295 295 302 308 309 307 306 307 304 300 296 293 296 301 304 307 308 305 305 310 302 278 278 296 301 309 322 319 298 286 282 274 267 262 259 256 258 266 283 296 300 291 250 153 44 33 356 7 21 3 344 339 328 321 328 355 352 337 345 4 358 355 20 28 11 360 9 11 8 11 10 5 6 10 12 11 8 2 1 1 359 354 355
287 290 285 285 301 309 308 309 315 318 316 311 307 303 303 306 310 313 313 309 307 310 302 285 282 294 303 314 328 323 293 287 293 286 271 260 252 246 247 256 266 279 295 313 334 9 42 36 11 14 35 8 330 316 315 316 319 333 344 338 350 3 351 350 16 23 8 3 11 8 7 12 8 1 3 9 10 9 7 4 2 358 355 357 2
288 289 281 277 298 309 308 309 316 319 321 325 327 324 322 321 322 322 322 319 319 321 312 296 290 296 304 312 325 321 285 280 285 277 261 254 247 237 236 249 258 266 288 313 324 325 6 32 13 23 42 2 315 309 321 320 314 321 341 346 356 7 354 350 11 20 8 4 8 1 2 12 7 357 357 4 6 5 4 2 360 358 357 358 360
298 311 314 316 322 314 307 308 325 340 338 330 325 323 325 326 324 323 325 326 326 328 324 315 314 326 326 315 311 298 277 277 274 249 226 222 224 223 224 239 254 263 280 305 309 306 326 109 85 46 22 338 313 317 330 323 316 325 346 352 355 5 359 351 5 17 7 360 360 354 354 5 5 356 355 3 3 360 359 359 359 359 359 356 354
312 326 330 337 327 305 295 305 348 352 333 319 317 318 318 319 318 317 322 328 332 332 331 328 327 331 330 322 308 290 285 296 302 273 225 217 215 214 217 231 252 265 281 303 315 325 26 108 91 30 346 317 314 321 327 322 320 325 338 350 354 359 358 352 359 9 5 357 356 352 350 355 356 352 357 6 5 358 357 358 358 357 354 352 351
328 319 315 330 324 304 301 335 3 343 325 321 316 306 297 300 305 307 315 329 337 334 331 333 333 328 323 319 314 305 297 304 314 316 290 272 245 212 210 223 245 262 277 302 313 316 313 164 133 115 270 297 312 317 321 325 320 317 324 358 11 358 350 350 357 3 1 356 354 352 350 351 350 349 358 9 5 356 353 355 354 354 352 350 351
324 311 310 324 316 304 314 357 360 335 324 310 294 291 307 330 338 349 357 354 343 332 331 344 352 335 316 302 298 304 305 302 306 313 312 308 293 236 224 236 247 253 261 292 303 302 300 295 122 122 135 301 304 303 307 318 318 311 316 347 22 353 340 349 3 7 2 355 350 350 352 352 349 347 356 6 3 353 349 349 350 355 357 353 353
311 311 320 318 301 292 314 6 347 314 303 294 292 312 351 356 350 356 359 351 342 340 343 356 19 5 331 299 278 278 286 298 306 309 306 300 285 260 254 259 258 254 254 276 293 298 302 298 270 225 244 295 298 303 313 334 336 314 309 320 343 346 350 7 14 7 0 353 348 349 351 349 345 345 353 360 356 350 348 348 349 354 357 354 352
310 322 324 304 293 301 350 3 320 292 291 307 331 348 347 337 334 346 349 340 341 345 341 338 353 12 343 294 260 257 283 307 315 312 306 305 303 290 273 263 257 255 255 264 287 301 308 298 249 187 180 253 290 307 320 334 329 306 304 317 333 4 59 36 350 347 354 353 347 346 346 341 339 343 348 352 350 346 345 344 345 349 352 350 345
314 314 298 287 303 340 346 328 312 307 316 338 351 338 324 320 322 330 333 328 331 339 334 328 331 347 355 346 327 293 292 313 325 325 323 322 320 310 294 277 266 265 265 269 292 309 313 297 249 222 206 223 268 292 302 309 303 295 304 322 341 39 102 322 319 332 342 339 333 334 333 327 328 336 342 345 344 341 339 339 342 346 348 345 339
294 287 284 291 333 346 320 314 336 341 336 342 346 342 341 339 334 331 331 324 315 318 322 318 317 326 344 350 338 323 316 320 328 328 324 315 304 294 280 270 266 268 271 274 291 311 319 308 239 204 194 201 234 262 275 285 291 295 301 308 309 306 307 306 311 324 331 330 329 330 326 313 316 327 335 338 336 335 336 338 339 342 344 339 334
275 279 291 304 329 336 326 332 347 344 341 351 355 348 342 337 332 330 329 322 317 322 326 318 312 314 323 330 328 329 335 346 346 337 328 318 317 317 304 264 244 250 263 268 272 292 312 320 261 185 192 213 238 262 273 280 288 290 288 287 289 295 299 300 305 315 322 326 328 328 320 307 310 320 326 330 331 332 336 336 335 339 342 335 330
265 298 307 301 322 354 354 350 351 347 345 348 342 327 316 311 312 313 313 310 311 315 317 316 317 321 325 331 338 341 343 350 351 343 335 334 345 3 4 286 232 231 252 267 269 273 287 292 268 231 222 224 236 258 272 279 284 282 276 277 282 289 294 298 305 312 318 322 325 323 315 305 301 306 316 325 329 331 333 333 332 336 338 330 328
281 318 297 301 341 3 357 354 354 341 330 326 324 318 314 315 320 322 321 318 313 308 308 315 321 321 319 320 324 325 327 333 338 331 324 326 337 353 337 287 258 243 254 268 274 277 283 280 263 245 229 217 223 247 261 267 270 270 270 274 281 289 299 306 310 313 316 319 320 316 309 303 293 293 307 320 326 327 329 330 330 331 331 327 325
290 298 295 322 4 9 1 358 348 328 322 332 337 329 324 328 333 330 324 320 318 317 317 317 314 309 309 311 310 306 308 315 317 313 311 317 326 330 319 292 269 259 266 273 271 269 276 276 265 246 225 214 224 242 249 252 256 260 268 280 290 300 310 315 318 319 320 320 319 312 304 298 282 287 301 311 318 319 319 324 327 327 323 318 317